BREEZE-M R/B, 36102

Orbit data source: Space-Track

BREEZE-M R/B, 36102 is space debris in HEO originally from a launch on Tue, 24 Nov 2009 UTC launched from the Tyuratam Missile And Space Complex (TTMTR). Debris objects in space refer to the collection of defunct objects orbiting the Earth. Examples of debris include non-operational satellites, rocket bodies, and fragments generated from explosions, collisions, or faulty payload assembly.

Loading next visibility...
Identifier
36102, 2009-065B
Orbit
HEO
Last TLE update
23 hours ago
Origin
Manufacturer
Khrunichev
Mission
Spacecraft
Bus & Motor
BRIZ, Unknown motor
Mass
~1,600 kg wet, 1,600 kg dry
Launch date (UTC)
2009-11-24 (16 years ago)
Launch vehicle
Unknown
Launch site
Tyuratam Missile And Space Complex (TTMTR)
Object type
Payload
Rocket body
Debris
Shape & HBR
Cyl, 4 m
Radar Cross Section
14.451 m², Large (>1 m²)

Expand to show TLE details & history

TLE from 23 hours ago
0 BREEZE-M R/B
1 36102U 09065B   25189.72156197 -.00000074  00000-0  00000-0 0  9997
2 36102  21.2925 290.6561 5874162 131.7582 290.4309  2.20878312125833
Epoch: 2025-07-08T17:19Z
TLE epoch observation values (Epoch: 2025-07-08T17:19:02.954Z)
Latitude
-1.37173°
Longitude
100.47604°
Altitude
21,728.735 km
Speed
3.516 km/s
True Right ascension
19h 08m 36s
True Declination
-1° 22' 11"
Sunlit
Object was in daylight at epoch
Visualization orbit readout
Latitude
10.62585°
Longitude
132.52249°
Altitude
12,132.069 km
Speed
5.202 km/s
Apparent Right ascension
20h 22m 23s
Apparent Declination
-1° 53' 56"
Sunlit
Object is in daylight
Visualization observer readout
Local Sidereal Time
04:19:01
Azimuth
288.204° WNW
Elevation
-23.249°
Doppler factor
1
Orbital elements
Apogee altitude
33,161.942 km
Perigee altitude
3,898.687 km
Semi-major axis
24,908.451 km
Eccentricity
0.58742
Inclination
21.2925°
RAAN
290.6561°
Arg. of periapsis
131.7582°
True anomaly
Unknown
Mean anomaly
290.4309°
Eccentric anomaly
Unknown
Mean motion
0.55211 °/min
Orbital period
652.05 mins
BSTAR
0
Loading maneuver chart data...
Loading SW <> Apogee altitude chart data...
Loading historical data...
Loading historical data...
Loading historical data...
Loading historical data...
Loading historical data...
Loading historical data...
Loading historical data...
Other satellites on launch #65 in the year 2009 (2009-11-24 UTC)

BREEZE-M R/B Visibility forecast

Observer location: undefined°, undefined°

Span
Click to sort rows by Start time (UTC) header in descending order
Start Az.
Max El. time (UTC)
Max El. Az.
Max El.
End time (UTC)
End Az.
34 mins2025-07-09 16:56:05.496Z258.862° W2025-07-09 17:12:05.496Z198.953° SSW26.805°2025-07-09 17:30:05.496Z142.085° SSE
47 mins2025-07-10 14:13:05.496Z261.556° W2025-07-10 14:43:05.496Z197.639° SSW35.031°2025-07-10 15:00:05.496Z125.299° SE
|